Location: Peterborough
(44.3091°N, 78.3197°W)
Time: 03:26:56
(UTC-04:00)

Tiros 1 despin weight - Pass Details

Date: 31 March 2023
Orbit: 586 x 632 km, 48.2° (Epoch: 08 June)

Event Time Altitude Azimuth Distance (km) Brightness Sun altitude
Rises 23:17:03 0° 287° (WNW) 2,812 ? -34.3°
Reaches altitude 10° 23:19:22 10° 292° (WNW) 1,914 ? -34.6°
Enters shadow 23:20:15 16° 295° (WNW) 1,576 ? -34.7°
Maximum altitude 23:23:42 59° 12° (NNE) 686 - -35.0°
Drops below altitude 10° 23:28:04 10° 92° (E) 1,932 - -35.5°
Sets 23:30:24 0° 97° (E) 2,841 - -35.7°
